When you browse on this site, cookies collect data to enhance your experience and personalize the content and advertising you see.
Visit our Privacy Policy to learn more. By continuing to use the site, you agree to this use of cookies and data.
  • In Belgium
  • List of Countries
  • For 7 days
  • Water Temperature
  • Satellite Maps
  • Weather Map
  • Weather Widgets
  • user-avatar
    Login

    Hourly Weather Vyazovik

    Today, 23 April, Tuesday

    Time Temperature Precipitation Wind Pressure Humidity
    00:00 +13°C° 0 mm 2 mps 754 mmHg 49%
    01:00 +12°C° 0 mm 2 mps 754 mmHg 51%
    02:00 +12°C° 0 mm 2 mps 754 mmHg 53%
    03:00 +12°C° 0 mm 2 mps 754 mmHg 54%
    04:00 +12°C° 0 mm 1 mps 754 mmHg 55%
    05:00 +11°C° 0 mm 1 mps 755 mmHg 56%
    06:00 +13°C° 0 mm 1 mps 755 mmHg 53%
    07:00 +14°C° 0 mm 2 mps 755 mmHg 51%
    08:00 +15°C° 0 mm 2 mps 755 mmHg 48%
    09:00 +16°C° 0 mm 2 mps 755 mmHg 42%
    10:00 +17°C° 0 mm 2 mps 755 mmHg 37%
    11:00 +18°C° 0 mm 3 mps 755 mmHg 31%
    12:00 +19°C° 0 mm 3 mps 755 mmHg 32%
    13:00 +19°C° 0 mm 3 mps 755 mmHg 32%
    14:00 +19°C° 0 mm 3 mps 755 mmHg 33%
    15:00 +18°C° 0 mm 3 mps 755 mmHg 35%
    16:00 +18°C° 0 mm 3 mps 754 mmHg 37%
    17:00 +18°C° 0 mm 2 mps 754 mmHg 40%
    18:00 +16°C° 0 mm 2 mps 754 mmHg 44%
    19:00 +15°C° 0 mm 2 mps 754 mmHg 47%
    20:00 +14°C° 0 mm 2 mps 754 mmHg 51%
    21:00 +13°C° 0 mm 2 mps 754 mmHg 53%
    22:00 +11°C° 0 mm 3 mps 755 mmHg 55%
    23:00 +11°C° 0 mm 3 mps 755 mmHg 57%

    Tomorrow, 24 April, Wednesday

    Time Temperature Precipitation Wind Pressure Humidity
    00:00 +10°C° 0 mm 3 mps 755 mmHg 59%
    01:00 +10°C° 0 mm 3 mps 755 mmHg 60%
    02:00 +10°C° 0 mm 3 mps 755 mmHg 62%
    03:00 +9°C° 0 mm 3 mps 755 mmHg 64%
    04:00 +9°C° 0 mm 3 mps 755 mmHg 66%
    05:00 +9°C° 0 mm 3 mps 755 mmHg 68%
    06:00 +11°C° 0 mm 3 mps 755 mmHg 63%
    07:00 +13°C° 0 mm 3 mps 755 mmHg 58%
    08:00 +16°C° 0 mm 3 mps 755 mmHg 53%
    09:00 +17°C° 0 mm 3 mps 755 mmHg 48%
    10:00 +19°C° 0 mm 3 mps 755 mmHg 43%
    11:00 +20°C° 0 mm 4 mps 755 mmHg 38%
    12:00 +20°C° 0 mm 4 mps 755 mmHg 37%
    13:00 +21°C° 0 mm 3 mps 755 mmHg 36%
    14:00 +21°C° 0 mm 3 mps 754 mmHg 35%
    15:00 +21°C° 0 mm 3 mps 754 mmHg 38%
    16:00 +21°C° 0 mm 3 mps 754 mmHg 40%
    17:00 +21°C° 0 mm 2 mps 754 mmHg 43%
    18:00 +19°C° 0 mm 2 mps 754 mmHg 46%
    19:00 +17°C° 0 mm 2 mps 754 mmHg 50%
    20:00 +16°C° 0 mm 2 mps 754 mmHg 54%
    21:00 +15°C° 0 mm 2 mps 754 mmHg 56%
    22:00 +15°C° 0 mm 2 mps 754 mmHg 57%
    23:00 +14°C° 0 mm 2 mps 754 mmHg 59%

    Day after tomorrow, 25 April, Thursday

    Time Temperature Precipitation Wind Pressure Humidity
    00:00 +14°C° 0 mm 2 mps 754 mmHg 61%
    01:00 +13°C° 0 mm 2 mps 754 mmHg 62%
    02:00 +13°C° 0 mm 2 mps 754 mmHg 64%
    03:00 +12°C° 0 mm 2 mps 754 mmHg 66%
    04:00 +12°C° 0 mm 2 mps 754 mmHg 67%
    05:00 +12°C° 0 mm 2 mps 754 mmHg 69%
    06:00 +14°C° 0 mm 2 mps 754 mmHg 63%
    07:00 +16°C° 0 mm 2 mps 754 mmHg 57%
    08:00 +17°C° 0 mm 2 mps 754 mmHg 52%
    09:00 +19°C° 0 mm 2 mps 754 mmHg 47%
    10:00 +20°C° 0 mm 2 mps 754 mmHg 43%
    11:00 +22°C° 0 mm 3 mps 754 mmHg 38%
    12:00 +23°C° 0 mm 2 mps 754 mmHg 37%
    13:00 +23°C° 0 mm 2 mps 754 mmHg 35%
    14:00 +24°C° 0 mm 2 mps 754 mmHg 34%
    15:00 +24°C° 0 mm 2 mps 753 mmHg 36%
    16:00 +24°C° 0 mm 2 mps 753 mmHg 38%
    17:00 +23°C° 0 mm 1 mps 753 mmHg 40%
    18:00 +22°C° 0 mm 1 mps 753 mmHg 43%
    19:00 +20°C° 0 mm 1 mps 753 mmHg 47%
    20:00 +18°C° 0 mm 1 mps 753 mmHg 50%
    21:00 +18°C° 0 mm 1 mps 753 mmHg 52%
    22:00 +16°C° 0 mm 1 mps 753 mmHg 55%
    23:00 +15°C° 0 mm 1 mps 753 mmHg 57%

    26 April, Friday

    Time Temperature Precipitation Wind Pressure Humidity
    00:00 +15°C° 0 mm 1 mps 753 mmHg 57%
    01:00 +15°C° 0 mm 1 mps 752 mmHg 58%
    02:00 +15°C° 0 mm 1 mps 752 mmHg 59%
    03:00 +15°C° 0.1 mm 1 mps 752 mmHg 61%
    04:00 +15°C° 0.1 mm 1 mps 752 mmHg 64%
    05:00 +15°C° 0.1 mm 1 mps 752 mmHg 66%
    06:00 +16°C° 0.2 mm 1 mps 752 mmHg 62%
    07:00 +18°C° 0.2 mm 1 mps 752 mmHg 59%
    08:00 +19°C° 0.2 mm 1 mps 752 mmHg 55%
    09:00 +20°C° 0 mm 2 mps 752 mmHg 51%
    10:00 +21°C° 0 mm 2 mps 752 mmHg 47%
    11:00 +23°C° 0 mm 2 mps 752 mmHg 43%
    12:00 +23°C° 0 mm 2 mps 752 mmHg 43%
    13:00 +23°C° 0 mm 2 mps 752 mmHg 44%
    14:00 +23°C° 0 mm 2 mps 751 mmHg 44%
    15:00 +23°C° 0 mm 2 mps 751 mmHg 47%
    16:00 +21°C° 0 mm 2 mps 751 mmHg 49%
    17:00 +22°C° 0 mm 1 mps 751 mmHg 51%
    18:00 +19°C° 0.1 mm 2 mps 751 mmHg 57%
    19:00 +18°C° 0.1 mm 2 mps 751 mmHg 62%
    20:00 +16°C° 0.1 mm 2 mps 751 mmHg 68%
    21:00 +15°C° 1.1 mm 1 mps 751 mmHg 73%
    22:00 +15°C° 1.1 mm 1 mps 751 mmHg 79%
    23:00 +14°C° 1.1 mm 1 mps 751 mmHg 85%

    27 April, Saturday

    Time Temperature Precipitation Wind Pressure Humidity
    00:00 +14°C° 0.2 mm 1 mps 750 mmHg 86%
    01:00 +14°C° 0.2 mm 1 mps 750 mmHg 87%
    02:00 +13°C° 0.2 mm 1 mps 750 mmHg 88%
    03:00 +13°C° 0.1 mm 1 mps 750 mmHg 88%
    04:00 +13°C° 0.1 mm 1 mps 750 mmHg 88%
    05:00 +13°C° 0.1 mm 1 mps 750 mmHg 88%
    06:00 +14°C° 0 mm 1 mps 750 mmHg 80%
    07:00 +16°C° 0 mm 1 mps 750 mmHg 72%
    08:00 +19°C° 0 mm 1 mps 750 mmHg 64%
    09:00 +19°C° 0 mm 2 mps 749 mmHg 57%
    10:00 +20°C° 0 mm 2 mps 749 mmHg 49%
    11:00 +21°C° 0 mm 2 mps 749 mmHg 42%
    12:00 +21°C° 0 mm 2 mps 748 mmHg 44%
    13:00 +21°C° 0 mm 2 mps 748 mmHg 46%
    14:00 +21°C° 0 mm 2 mps 748 mmHg 48%
    15:00 +21°C° 0 mm 2 mps 748 mmHg 51%
    16:00 +21°C° 0 mm 1 mps 748 mmHg 53%
    17:00 +21°C° 0 mm 1 mps 747 mmHg 56%
    18:00 +20°C° 0 mm 1 mps 747 mmHg 57%
    19:00 +19°C° 0 mm 1 mps 747 mmHg 58%
    20:00 +18°C° 0 mm 1 mps 747 mmHg 60%
    21:00 +18°C° 0.1 mm 1 mps 747 mmHg 63%
    22:00 +16°C° 0.1 mm 2 mps 747 mmHg 66%
    23:00 +15°C° 0.1 mm 2 mps 747 mmHg 70%

    28 April, Sunday

    Time Temperature Precipitation Wind Pressure Humidity
    00:00 +15°C° 0.2 mm 2 mps 747 mmHg 73%
    01:00 +15°C° 0.2 mm 1 mps 747 mmHg 76%
    02:00 +14°C° 0.2 mm 1 mps 747 mmHg 80%
    03:00 +14°C° 0 mm 1 mps 747 mmHg 81%
    04:00 +14°C° 0 mm 1 mps 747 mmHg 82%
    05:00 +13°C° 0 mm 0 mps 747 mmHg 84%
    06:00 +14°C° 0.1 mm 1 mps 747 mmHg 81%
    07:00 +15°C° 0.1 mm 1 mps 747 mmHg 79%
    08:00 +16°C° 0.1 mm 1 mps 747 mmHg 77%
    09:00 +17°C° 0.5 mm 2 mps 747 mmHg 74%
    10:00 +17°C° 0.5 mm 2 mps 747 mmHg 70%
    11:00 +18°C° 0.5 mm 3 mps 747 mmHg 67%
    12:00 +19°C° 0 mm 3 mps 747 mmHg 63%
    13:00 +19°C° 0 mm 3 mps 746 mmHg 60%
    14:00 +20°C° 0 mm 3 mps 746 mmHg 56%
    15:00 +19°C° 0.3 mm 3 mps 746 mmHg 61%
    16:00 +18°C° 0.3 mm 2 mps 746 mmHg 66%
    17:00 +18°C° 0.3 mm 2 mps 746 mmHg 71%
    18:00 +17°C° 0.3 mm 2 mps 746 mmHg 75%
    19:00 +16°C° 0.3 mm 2 mps 746 mmHg 78%
    20:00 +15°C° 0.3 mm 2 mps 746 mmHg 82%
    21:00 +15°C° 0.2 mm 2 mps 746 mmHg 83%
    22:00 +15°C° 0.2 mm 2 mps 746 mmHg 84%
    23:00 +15°C° 0.2 mm 2 mps 746 mmHg 85%
    Show more